Weather History for KHYX - March, 2013

Change the Weather History Date:

Sunday, March 10, 2013

  Actual Average (KMBS) Record (KMBS)
Temperature  
Mean Temperature 42 °F 31 °F  
Max Temperature 51 °F 40 °F 52 °F (2009)
Min Temperature 33 °F 23 °F 0 °F (2003)
Degree Days  
Heating Degree Days 23    
Month to date heating degree days  
Since 1 July heating degree days  
Cooling Degree Days 0    
Month to date cooling degree days  
Year to date cooling degree days  
Moisture  
Dew Point 36 °F    
Average Humidity 79    
Maximum Humidity 93    
Minimum Humidity 58    
Precipitation  
Precipitation 0.00 in 0.06 in 0.41 in (2006)
Month to date precipitation 0.68  
Year to date precipitation 4.00  
Snow  
Snow 0.00 in - - ()
Month to date snowfall  
Since 1 July snowfall  
Snow Depth -    
Sea Level Pressure  
Sea Level Pressure 29.87 in    
Wind  
Wind Speed 6 mph (SSE)    
Max Wind Speed 16 mph    
Max Gust Speed 22 mph    
Visibility 10 miles    
Events Rain    
T = Trace of Precipitation, MM = Missing Value Source: NWS Daily Summary

Daily Weather History Graph

Daily Weather History Graph

Search for Another Location

Airport or City:

Trip Planner

Search our weather history database for the weather conditions in past years. The results will help you decide how hot, cold, wet, or windy it might be!

Date:

Astronomy

Mar. 10, 2013 Rise Set
Actual Time 7:55 AM EDT 7:35 PM EDT
Civil Twilight 7:27 AM EDT 8:04 PM EDT
Nautical Twilight 6:54 AM EDT 8:37 PM EDT
Astronomical Twilight 6:21 AM EDT 9:11 PM EDT
Moon 6:56 AM EDT (3/10) 6:42 PM EDT (3/10)
Length of Visible Light 12h 36m
Length of Day
11h 39m
Waning Crescent, 2% of the Moon is Illuminated
Mar 10
Waning Crescent
Mar 11
New
Mar 19
First Quarter
Mar 27
Full
Apr 3
Last Quarter

Hourly Weather History & Observations

Time (EDT) Temp. Windchill Dew Point Humidity Pressure Visibility Wind Dir Wind Speed Gust Speed Precip Events Conditions
12:14 AM 35.6 °F - 32.0 °F 87% 30.01 in 10.0 mi Calm Calm - N/A   Overcast
12:34 AM 35.6 °F - 32.0 °F 87% 30.01 in 10.0 mi Calm Calm - N/A   Scattered Clouds
12:54 AM 33.8 °F 28.6 °F 32.0 °F 93% 30.00 in 10.0 mi ESE 5.8 mph - N/A   Clear
1:14 AM 35.6 °F 29.9 °F 32.0 °F 87% 29.99 in 10.0 mi ESE 6.9 mph - N/A   Clear
1:34 AM 33.8 °F 28.6 °F 32.0 °F 93% 29.98 in 10.0 mi SE 5.8 mph - N/A   Clear
1:54 AM 33.8 °F 28.6 °F 32.0 °F 93% 29.97 in 10.0 mi SE 5.8 mph - N/A   Clear
3:14 AM 35.6 °F 31.7 °F 32.0 °F 87% 29.96 in 10.0 mi SE 4.6 mph - N/A   Clear
3:35 AM 35.6 °F 29.9 °F 32.0 °F 87% 29.95 in 10.0 mi SE 6.9 mph - N/A   Scattered Clouds
3:55 AM 35.6 °F 30.7 °F 32.0 °F 87% 29.94 in 10.0 mi SSE 5.8 mph - N/A   Scattered Clouds
4:15 AM 35.6 °F 30.7 °F 32.0 °F 87% 29.93 in 10.0 mi SSE 5.8 mph - N/A   Scattered Clouds
4:35 AM 35.6 °F 29.9 °F 32.0 °F 87% 29.92 in 10.0 mi SSE 6.9 mph - N/A   Mostly Cloudy
4:55 AM 37.4 °F 31.4 °F 32.0 °F 81% 29.91 in 10.0 mi South 8.1 mph - N/A   Overcast
5:15 AM 37.4 °F 31.4 °F 32.0 °F 81% 29.91 in 10.0 mi South 8.1 mph - N/A   Mostly Cloudy
5:35 AM 37.4 °F 31.4 °F 32.0 °F 81% 29.91 in 10.0 mi South 8.1 mph - N/A   Mostly Cloudy
5:56 AM 39.2 °F 33.0 °F 32.0 °F 75% 29.90 in 10.0 mi South 9.2 mph - N/A   Overcast
6:11 AM 41.0 °F 35.8 °F 32.0 °F 70% 29.90 in 10.0 mi South 8.1 mph - N/A   Overcast
6:31 AM 41.0 °F 35.2 °F 32.0 °F 70% 29.89 in 10.0 mi South 9.2 mph - N/A   Overcast
6:51 AM 41.0 °F 35.2 °F 32.0 °F 70% 29.89 in 10.0 mi South 9.2 mph - N/A   Overcast
7:11 AM 41.0 °F 35.2 °F 32.0 °F 70% 29.89 in 10.0 mi South 9.2 mph - N/A   Overcast
7:31 AM 41.0 °F 34.7 °F 32.0 °F 70% 29.90 in 10.0 mi South 10.4 mph - N/A   Overcast
8:32 AM 42.8 °F 36.6 °F 32.0 °F 66% 29.90 in 10.0 mi South 11.5 mph - N/A   Overcast
8:52 AM 42.8 °F 35.1 °F 32.0 °F 66% 29.91 in 10.0 mi SSW 16.1 mph 21.9 mph N/A Rain Light Rain
9:12 AM 42.8 °F 35.1 °F 33.8 °F 70% 29.92 in 10.0 mi SSW 16.1 mph - N/A   Overcast
9:32 AM 42.8 °F 35.8 °F 33.8 °F 70% 29.92 in 10.0 mi SSW 13.8 mph - N/A   Overcast
9:52 AM 41.0 °F 35.2 °F 33.8 °F 76% 29.90 in 10.0 mi South 9.2 mph - N/A   Drizzle
10:12 AM 41.0 °F 34.7 °F 35.6 °F 81% 29.90 in 10.0 mi South 10.4 mph - N/A Rain Rain
10:32 AM 41.0 °F 35.8 °F 37.4 °F 87% 29.89 in 10.0 mi South 8.1 mph - N/A   Overcast
10:52 AM 42.8 °F 37.5 °F 39.2 °F 87% 29.88 in 10.0 mi South 9.2 mph - N/A   Overcast
11:12 AM 42.8 °F 38.6 °F 39.2 °F 87% 29.86 in 10.0 mi South 6.9 mph - N/A   Overcast
11:32 AM 42.8 °F 38.6 °F 41.0 °F 93% 29.87 in 10.0 mi South 6.9 mph - N/A   Overcast
11:52 AM 44.6 °F 40.7 °F 39.2 °F 81% 29.87 in 10.0 mi South 6.9 mph - N/A   Overcast
12:13 PM 44.6 °F 40.7 °F 39.2 °F 81% 29.87 in 10.0 mi South 6.9 mph - N/A   Overcast
12:33 PM 46.4 °F 42.9 °F 37.4 °F 71% 29.86 in 10.0 mi South 6.9 mph - N/A   Overcast
12:53 PM 48.2 °F - 37.4 °F 66% 29.86 in 10.0 mi South 10.4 mph - N/A   Overcast
1:13 PM 50.0 °F - 37.4 °F 62% 29.86 in 10.0 mi SSW 9.2 mph - N/A   Overcast
1:33 PM 51.8 °F - 37.4 °F 58% 29.86 in 10.0 mi SSW 10.4 mph - N/A   Mostly Cloudy
1:53 PM 50.0 °F - 35.6 °F 58% 29.88 in 10.0 mi SSW 13.8 mph - N/A   Overcast
2:13 PM 50.0 °F - 37.4 °F 62% 29.87 in 10.0 mi SW 10.4 mph - N/A   Overcast
2:33 PM 50.0 °F - 35.6 °F 58% 29.87 in 10.0 mi SSW 11.5 mph - N/A   Overcast
2:53 PM 48.2 °F - 37.4 °F 66% 29.86 in 10.0 mi SSW 6.9 mph - N/A   Overcast
3:13 PM 50.0 °F - 37.4 °F 62% 29.85 in 10.0 mi South 5.8 mph - N/A   Overcast
3:33 PM 50.0 °F - 37.4 °F 62% 29.86 in 10.0 mi South 5.8 mph - N/A   Overcast
3:53 PM 48.2 °F - 37.4 °F 66% 29.87 in 10.0 mi SSW 4.6 mph - N/A   Overcast
4:14 PM 50.0 °F - 37.4 °F 62% 29.87 in 10.0 mi SSW 4.6 mph - N/A   Overcast
4:34 PM 50.0 °F - 39.2 °F 66% 29.86 in 10.0 mi South 3.5 mph - N/A   Overcast
4:54 PM 50.0 °F - 41.0 °F 71% 29.84 in 10.0 mi ESE 3.5 mph - N/A   Overcast
5:14 PM 46.4 °F 45.2 °F 39.2 °F 76% 29.86 in 10.0 mi SSE 3.5 mph - N/A   Overcast
5:34 PM 46.4 °F 44.3 °F 41.0 °F 81% 29.82 in 10.0 mi ENE 4.6 mph - N/A   Overcast
5:54 PM 46.4 °F 45.2 °F 39.2 °F 76% 29.85 in 10.0 mi South 3.5 mph - N/A   Overcast
6:14 PM 44.6 °F - 39.2 °F 81% 29.84 in 10.0 mi Calm Calm - N/A   Overcast
6:35 PM 44.6 °F - 39.2 °F 81% 29.86 in 10.0 mi Calm Calm - N/A   Overcast
6:55 PM 42.8 °F - 39.2 °F 87% 29.86 in 10.0 mi Calm Calm - N/A   Overcast
7:15 PM 42.8 °F - 39.2 °F 87% 29.85 in 7.0 mi Calm Calm - N/A   Overcast
7:35 PM 41.0 °F 37.1 °F 37.4 °F 87% 29.83 in 7.0 mi ENE 5.8 mph - N/A   Overcast
7:55 PM 41.0 °F 36.4 °F 39.2 °F 93% 29.82 in 10.0 mi ENE 6.9 mph - N/A   Overcast
8:15 PM 42.8 °F 40.1 °F 39.2 °F 87% 29.83 in 10.0 mi ENE 4.6 mph - N/A   Overcast
8:35 PM 41.0 °F 39.0 °F 39.2 °F 93% 29.82 in 7.0 mi ENE 3.5 mph - N/A   Overcast
8:56 PM 41.0 °F - 37.4 °F 87% 29.82 in 7.0 mi Calm Calm - N/A   Overcast
9:11 PM 41.0 °F - 39.2 °F 93% 29.82 in 7.0 mi Calm Calm - N/A   Overcast
9:31 PM 39.2 °F 37.0 °F 37.4 °F 93% 29.81 in 7.0 mi NE 3.5 mph - N/A   Mostly Cloudy
10:11 PM 41.0 °F 38.0 °F 37.4 °F 87% 29.81 in 10.0 mi SE 4.6 mph - N/A   Overcast
10:31 PM 41.0 °F - 37.4 °F 87% 29.81 in 10.0 mi Calm Calm - N/A Rain Light Rain
10:51 PM 42.8 °F 39.3 °F 41.0 °F 93% 29.79 in 10.0 mi SE 5.8 mph - N/A Rain Light Rain
11:11 PM 44.6 °F - 41.0 °F 87% 29.77 in 10.0 mi Calm Calm - N/A   Drizzle
11:31 PM 44.6 °F - 39.2 °F 81% 29.77 in 10.0 mi Calm Calm - N/A Rain Light Rain
11:52 PM 44.6 °F - 39.2 °F 81% 29.77 in 10.0 mi Calm Calm - N/A   Overcast
12:12 AM 42.8 °F - 39.2 °F 87% 29.77 in 10.0 mi Calm Calm - N/A   Light Drizzle
12:32 AM 44.6 °F - 39.2 °F 81% 29.77 in 10.0 mi Calm Calm - N/A Rain Light Rain
12:52 AM 46.4 °F 43.5 °F 39.2 °F 76% 29.75 in 10.0 mi SSE 5.8 mph - N/A Rain Light Rain